GONETS-M 11             
1 40552U 15020A   19265.17064245  .00000061  00000-0  36851-3 0  9999
2 40552  82.4836 123.7430 0016727 332.0979  27.9202 12.42889837203172
GONETS-M 12             
1 40553U 15020B   19265.62703327  .00000038  00000-0  20283-3 0  9997
2 40553  82.4871 123.8868 0014697 314.8753  45.1130 12.42889825203236
GONETS-M 13             
1 40554U 15020C   19265.44011893  .00000033  00000-0  16933-3 0  9990
2 40554  82.4830 123.4188 0012847 300.0497  59.9299 12.42880317203214
COSMOS 2504             
1 40555U 15020D   19265.64585052  .00000009  00000-0 -74279-5 0  9999
2 40555  82.5212 327.3533 0589489 105.7899 260.9032 13.52250730215928
BREEZE-KM R/B           
1 40556U 15020E   19264.50379011  .00000016  00000-0  13699-4 0  9995
2 40556  82.4893  50.4808 0215905  45.6684 316.1890 12.80515786209244
BREEZE-KM DEB           
1 41718U 15020F   19264.64681130 -.00000009  00000-0 -65119-4 0  9997
2 41718  82.4917  29.2340 0228650 345.7474  13.7251 12.91195191202339
BREEZE-KM DEB           
1 41719U 15020G   19265.40759770  .00000035  00000-0  96382-4 0  9992
2 41719  82.4897  60.6058 0223226  71.9857 290.5428 12.75070569198966
BREEZE-KM DEB           
1 41720U 15020H   19264.64547853 -.00000007  00000-0 -58950-4 0  9996
2 41720  82.4910  29.7862 0229742 347.2288  12.3058 12.90885028201256
BREEZE-KM DEB           
1 41721U 15020J   19264.15772708  .00000043  00000-0  12733-3 0  9998
2 41721  82.4902  62.2424 0246597  75.6555 287.1782 12.74576491198658
BREEZE-KM DEB           
1 41722U 15020K   19257.22165393  .00000017  00000-0  20017-4 0  9991
2 41722  82.4870  75.3223 0180596 118.3770 243.5665 12.70398482178411
BREEZE-KM DEB           
1 41723U 15020L   19259.68098963  .00000087  00000-0  25327-3 0  9997
2 41723  82.4896  31.7502 0222390 356.0710   3.8642 12.91781999180899